Regional Weather Roundup
Issued by NWS Upton, NY

Current Version | Previous Version | Text Only | Print | Product List | Glossary On
Versions: 1 2 3 4 5 6 7 8 9 10 11 12 13 14 15 16 17 18 19 20 21 22 23 24 25 26 27 28 29 30 31 32 33 34 35 36 37 38 39 40 41 42 43 44 45 46 47 48 49 50
000
ASUS41 KOKX 210505
RWROKX

REGIONAL WEATHER ROUNDUP
NATIONAL WEATHER SERVICE NEW YORK NY
100 AM EDT SUN SEP 21 2014

NOTE: "FAIR" INDICATES FEW OR NO CLOUDS BELOW 12,000 FEET WITH NO
SIGNIFICANT WEATHER AND/OR OBSTRUCTIONS TO VISIBILITY.

NYZ071-072-176-178-NJZ106-104-210600-
NEW YORK CITY METRO AREA


CITY           SKY/WX    TMP DP  RH WIND       PRES   REMARKS
CENTRAL PARK   CLOUDY    71  62  73 CALM      30.06F
LAGUARDIA APRT CLOUDY    70  63  78 CALM      30.03F
KENNEDY INTL   HVY RAIN  69  65  86 SE5       30.05F FOG
NEWARK/LIBERTY CLOUDY    70  64  81 CALM      30.03F
BRNX BOT. GARD   N/A     68  63  83 E3        30.06S
TETERBORO      CLOUDY    70  63  78 CALM      30.03F
$$

NYZ177-179-078>081-210600-
LONG ISLAND NEW YORK

CITY           SKY/WX    TMP DP  RH WIND       PRES   REMARKS
FARMINGDALE    LGT RAIN  67  65  93 E5        30.04F
ISLIP          LGT RAIN  67  64  90 SE6       30.03F
SHIRLEY        LGT RAIN  67  64  90 CALM      30.06F FOG
WESTHAMPTON    LGT RAIN  67  63  87 SE3       30.08F FOG
MONTAUK POINT    N/A     69  65  86 SE5       30.08F
$$

NYZ052-065-067-210600-
HUDSON VALLEY

CITY           SKY/WX    TMP DP  RH WIND       PRES   REMARKS
WHITE PLAINS   LGT RAIN  65  63  93 E5        30.05F
NEWBURGH       PTCLDY    63  63 100 SW6       30.07F
MONTGOMERY     PTCLDY    54  53  97 CALM      30.05F
POUGHKEEPSIE   CLEAR     61  59  93 SE5       30.04F
ALBANY         PTCLDY    64  57  78 S12       30.02S
$$

NJZ001-105-106-008-010-013-015-019>022-104-210600-
NEW JERSEY

CITY           SKY/WX    TMP DP  RH WIND       PRES   REMARKS
NEWARK/LIBERTY CLOUDY    70  64  81 CALM      30.03F
TETERBORO      CLOUDY    70  63  78 CALM      30.03F
CALDWELL       CLOUDY    65  59  81 CALM      30.05F
MORRISTOWN     CLOUDY    64  61  88 CALM      30.05F
SOMERVILLE     CLOUDY    64  60  87 CALM      30.03F
LINDEN         CLOUDY    73  67  81 CALM      30.05F
SUSSEX         MOCLDY    57  55  93 CALM      30.06F
ANDOVER          N/A     61  60  97 CALM      30.06F
TRENTON        CLOUDY    65  60  84 NW3       30.04F
MILLVILLE      CLOUDY    68  64  87 CALM      30.02F
ATLANTIC CITY  CLOUDY    68  66  93 MISG      30.02F
WRIGHTSTOWN    CLOUDY    67  64  93 NE2       30.01F
TOMS RIVER     CLOUDY    66  64  94 CALM      30.03F
BELMAR         CLOUDY    70  64  83 S6        30.02F
$$

PAZ047>061-062-071-210600-
EASTERN PENNSYLVANIA

CITY           SKY/WX    TMP DP  RH WIND       PRES   REMARKS
PHILADELPHIA   CLOUDY    69  64  84 W5        30.04F
ALLENTOWN      CLEAR     58  55  90 N5        30.05F
SCRANTON       CLEAR     63  57  81 MISG      30.04F
$$

CTZ002-004>006-009-010-012-RIZ004-006-007-MAZ004-011-015-210600-
SOUTHERN NEW ENGLAND
 IN CT

CITY           SKY/WX    TMP DP  RH WIND       PRES   REMARKS
BRADLEY INTL   MOCLDY    62  56  80 S3        30.07F
HARTFORD       LGT RAIN  62  59  90 S5        30.07F
DANBURY        LGT RAIN  62  60  93 CALM      30.08F FOG
WTRBRY/OXFORD  CLOUDY    63  59  88 CALM      30.09F
BRIDGEPORT     CLOUDY    69  64  84 CALM      30.06F
MERIDEN        CLOUDY    60  58  92 W3        30.07F
NEW HAVEN      CLOUDY    68  65  90 CALM      30.06F
CHESTER        CLOUDY    63  61  94 CALM      30.08F
GROTON         CLOUDY    67  64  90 E5        30.07F
WILLIMANTIC    CLOUDY    57  54  89 NE3       30.09F

 IN RI

CITY           SKY/WX    TMP DP  RH WIND       PRES   REMARKS
PROVIDENCE     CLOUDY    61  56  83 CALM      30.09F
BLOCK ISLAND   CLOUDY    70  63  78 S8        30.09S
WESTERLY       CLOUDY    63  59  87 CALM      30.08F

 IN MA

CITY           SKY/WX    TMP DP  RH WIND       PRES   REMARKS
BOSTON         MOCLDY    63  57  81 S10       30.08F
WORCESTER      CLOUDY    59  57  93 SW9       30.10F
WESTFIELD      CLOUDY    57  55  93 CALM      30.07F
PROVINCETOWN   PTCLDY    63  55  77 S7        30.10F
NANTUCKET      PTCLDY    62  59  90 SE6       30.11F
$$

ANZ330-335-338-340-345-350-353-355-210600-
COASTAL MARINE OBSERVATIONS


STATION/POSITION TIME  SKY/WX   TEMP    WIND        PRES    VSBY  WAVE
                                AIR SEA DIR/SP/G                  HT/PER
                 (UTC)          (F)     (DEG/KT/KT) (MB)    (MI)  (FT/S)
NY HARB ENTRANCE 0500            71 70  130/ 12/ 14 1017.0          4/ 9
4S FIRE IS       0500               69                N/A           4/ 8
20S FIRE ISLAND  0500            69 69   70/  4/  6 1017.5          4/ 9
23SW MTP         0500                                 N/A           4/ 7
HUDSON CANYON    0500            74 72  140/ 14/ 16 1016.8          5/ 8
EXECUTION ROCKS  0500            69 70   60/  6/  8   N/A
WESTERN LI SOUND 0500            69      40/  4/  4   N/A           0
CENTRAL LI SOUND 0400            69 70  180/  8/ 10   N/A           1
EASTERN LI SOUND 0400            69 68  110/  4/  6   N/A
ROBBINS REEF     0400            70     170/  3/  3 1016.2
$$


>>>>>>>>>>>>>>>>>>>>>>>>>>>> KEY <<<<<<<<<<<<<<<<<<<<<<<<<<<
>                                                          <
>     SKY/WX - SKY CONDITION/PRESENT WEATHER               <
>     TMP    - TEMPERATURE IN FAHRENHEIT                   <
>     DP     - DEWPOINT IN FAHRENHEIT                      <
>     RH     - RELATIVE HUMIDITY IN PERCENT                <
>     WIND   - DIRECTION AND SPEED IN MPH                  <
>     PRES   - MEAN SEA LEVEL PRESSURE IN INCHES OF HG     <
>     WCI    - WIND CHILL INDEX                            <
>     VSB    - VISIBILITY IN MILES                         <
>     HX     - HEAT INDEX                                  <
>     TC     - TEMPERATURE IN CELSIUS                      <
>     VRB    - VARIABLE WIND DIRECTION                     <
>                                                          <
>>>>>>>>>>>>>>>>>>>>>>>>>>>> KEY <<<<<<<<<<<<<<<<<<<<<<<<<<<




USA.gov is the U.S. government's official web portal to all federal, state and local government web resources and services.